Regional Weather Roundup
Issued by NWS

Home | Current Version | Previous Version | Text Only | Print | Product List | Glossary Off
Versions: 1 2 3 4 5 6 7 8 9 10 11 12 13 14 15 16 17 18 19 20 21 22 23 24 25 26 27 28 29 30 31 32 33 34 35 36 37 38 39 40 41 42 43 44 45 46 47 48 49 50

000
ASUS43 KLOT 312000
RWRIL

ILLINOIS REGIONAL WEATHER ROUNDUP
NATIONAL WEATHER SERVICE CHICAGO/ROMEOVILLE IL
300 PM CDT FRI JUL 31 2015

NOTE: "FAIR" INDICATES FEW OR NO CLOUDS BELOW 12,000 FEET WITH NO
SIGNIFICANT WEATHER AND/OR OBSTRUCTIONS TO VISIBILITY.

* THESE STATIONS ARE NOT UNDER NWS QUALITY CONTROL. THEY ALSO MAY NOT
  REPORT WEATHER SUCH AS PRECIPITATION OR FOG.

ILZ001-002-007-009-015-016-024-312100-
NORTHWEST ILLINOIS

CITY           SKY/WX    TMP DP  RH WIND       PRES   REMARKS
MOLINE         SUNNY     89  56  32 NW15      30.03F HX  87
STERLING*      SUNNY    N/A N/A N/A NW20G26   29.98F
$$

ILZ003-004-008-010-011-017-018-312100-
NORTH CENTRAL ILLINOIS

CITY           SKY/WX    TMP DP  RH WIND       PRES   REMARKS
ROCKFORD       MOSUNNY   85  50  29 NW21G29   30.00F HX  83
$$

ILZ005-006-012>014-019>023-312100-
NORTHEAST ILLINOIS

CITY           SKY/WX    TMP DP  RH WIND       PRES   REMARKS
CHICAGO-OHARE  MOSUNNY   86  53  32 NW17G28   29.95F HX  84
CHICAGO-MIDWAY MOSUNNY   89  51  27 W22G29    29.94F HX  86
AURORA         SUNNY     85  54  34 NW18G28   29.98F HX  83
WAUKEGAN       MOSUNNY   83  51  33 W12G22    29.94F HX  81
DUPAGE AIRPORT MOSUNNY   85  51  31 NW17G26   29.97F HX  83
WHEELING       SUNNY     86  48  26 NW22G32   29.95F HX  83
NORTHERLY ISL    N/A     86  46  24 W20         N/A  HX  83
$$

LMZ740>746-312100-
SOUTHERN LAKE MICHIGAN

STATION/POSITION SKY/WX   TEMP    WIND        PRES    VSBY  WAVE
                          AIR SEA DIR/SP/G                  HT/PER
                          (F)     (DEG/KT/KT) (MB)    (MI)  (FT/S)
HARRISON CRIB              82     290/ 19/ 23   N/A
BURNHAM HARBOR             85     290/ 15/ 21   N/A
CALUMET HARBOR             87     280/  8/ 18   N/A
BURNS HARBOR               78     330/  1/  4 1014.9F
MICHIGAN CITY              79     260/  6/  6   N/A
MICHIGAN CITY 6N           77 76  290/  4/  4   N/A           1/ 3
ST. JOSEPH                 75 74  290/  8/  8   N/A           2/ 3
$$

ILZ025>027-034>036-040-047-049-050-058-095>099-312100-
WEST-CENTRAL ILLINOIS

CITY           SKY/WX    TMP DP  RH WIND       PRES   REMARKS
QUINCY         SUNNY     87  66  49 NW9       30.07F HX  89
$$

ILZ028>032-037-038-041>044-048-051>054-059>061-312100-
CENTRAL ILLINOIS

CITY           SKY/WX    TMP DP  RH WIND       PRES   REMARKS
DECATUR        MOSUNNY   89  63  41 NW15      30.04F HX  90
PEORIA         SUNNY     90  60  36 N9        30.03F HX  89
SPRINGFIELD    SUNNY     89  69  51 W10G17    30.04F HX  93
TAYLORVILLE    NOT AVBL
$$

ILZ033-039-045-046-055>057-062-063-312100-
EAST-CENTRAL ILLINOIS

CITY           SKY/WX    TMP DP  RH WIND       PRES   REMARKS
CHAMPAIGN      SUNNY     87  68  52 W14G21    30.03F HX  90
RANTOUL*       SUNNY     89  60  37 NW16G30   30.02F HX  88
MATTOON        MOSUNNY   89  64  43 NW14      30.03F HX  90
$$

ILZ079-100>102-312100-
SOUTHWEST ILLINOIS

CITY           SKY/WX    TMP DP  RH WIND       PRES   REMARKS
BELLEVILLE     SUNNY     91  69  49 VRB3G21   30.05F HX  95
CAHOKIA*       SUNNY     94  56  27 NW14      30.05F HX  92
$$

ILZ064>066-069>071-074>076-080>082-084>086-088>090-092>094-312100-
SOUTH-CENTRAL ILLINOIS

CITY           SKY/WX    TMP DP  RH WIND       PRES   REMARKS
CARBONDALE     MOSUNNY   89  66  46 N12       30.06F HX  91
MARION         MOSUNNY   90  68  48 N14       30.07F HX  93
$$

ILZ067-068-072-073-078-083-087-091-312100-
SOUTHEAST ILLINOIS

CITY           SKY/WX    TMP DP  RH WIND       PRES   REMARKS
LAWRENCEVILLE  SUNNY     89  66  46 NW7       30.03F HX  91
$$

ABBREVIATIONS USED IN REMARKS
   TC - TEMPERATURE IN CELSIUS
  WCI - WIND CHILL INDEX
   HX - HEAT INDEX
  VSB - VISIBILITY
$$




USA.gov is the U.S. government's official web portal to all federal, state and local government web resources and services.